Total_Precipitation_Accumulation
0.99 1.12 1.33 1.04 0.92 0.89 0.90 0.97 1.04 1.14 1.16 1.28 1.34 1.30 1.30 1.37 1.45 1.42 1.41 1.35 1.31 1.34 1.37 1.40 1.42 1.46 1.41 1.42 1.27 1.21 1.13 1.03 1.02 1.01 0.96 0.96 1.16 1.45 1.66 1.85 1.79 1.29 1.25
0.72 0.84 1.06 0.92 0.88 0.88 0.91 1.00 1.08 1.17 1.26 1.32 1.32 1.34 1.39 1.41 1.38 1.30 1.27 1.29 1.33 1.30 1.21 1.16 1.12 1.16 1.17 1.13 1.04 1.02 0.98 1.07 1.08 1.12 1.09 0.97 1.15 1.41 1.60 1.75 1.77 1.27 1.31
0.43 0.57 0.75 0.82 0.81 0.82 0.87 1.08 1.17 1.18 1.24 1.28 1.33 1.42 1.49 1.50 1.41 1.29 1.27 1.23 1.21 1.16 1.08 1.00 0.98 0.98 0.88 0.87 0.91 0.90 0.96 1.19 1.21 1.33 1.38 0.83 0.73 1.22 1.40 1.47 1.38 1.15 1.16
0.33 0.42 0.47 0.55 0.58 0.64 0.74 0.81 0.90 0.97 0.99 1.09 1.30 1.40 1.43 1.38 1.29 1.22 1.14 1.10 1.08 1.08 1.07 0.99 0.97 0.89 0.76 0.74 0.76 0.76 0.92 1.20 1.26 1.50 1.55 0.91 0.54 0.95 1.25 1.19 1.03 0.99 0.95
0.24 0.33 0.38 0.41 0.42 0.45 0.49 0.57 0.75 0.86 0.93 1.04 1.14 1.19 1.19 1.16 1.15 1.08 1.04 1.07 1.06 1.11 1.15 1.02 0.89 0.76 0.66 0.60 0.59 0.66 0.89 1.19 1.31 1.31 1.09 0.95 0.80 0.97 1.10 1.04 0.91 0.93 0.85
0.20 0.28 0.29 0.30 0.30 0.35 0.39 0.49 0.62 0.72 0.81 0.89 0.92 0.97 1.07 1.16 1.14 1.03 1.04 1.08 1.14 1.16 1.07 0.93 0.78 0.68 0.64 0.55 0.57 0.65 0.79 1.14 1.11 0.83 0.76 0.79 0.72 0.88 1.00 1.07 1.04 1.10 0.97
0.14 0.20 0.22 0.26 0.25 0.28 0.35 0.48 0.61 0.73 0.78 0.75 0.80 1.00 1.13 1.18 1.16 1.13 1.07 1.08 1.09 1.01 0.91 0.86 0.77 0.72 0.62 0.54 0.60 0.67 0.80 0.99 0.86 0.61 0.74 0.87 0.72 0.76 0.93 1.11 1.22 1.21 1.08
0.14 0.20 0.25 0.27 0.25 0.27 0.32 0.41 0.54 0.62 0.69 0.73 0.83 0.93 0.99 1.00 1.02 1.07 1.10 1.11 1.02 0.92 0.81 0.74 0.68 0.67 0.64 0.59 0.59 0.64 0.76 0.81 0.62 0.54 0.53 0.63 0.58 0.67 0.88 1.08 1.20 1.21 1.11
0.28 0.26 0.29 0.33 0.34 0.35 0.42 0.52 0.61 0.65 0.75 0.83 0.87 0.88 0.86 0.86 0.88 0.94 1.02 1.02 0.96 0.82 0.69 0.67 0.60 0.57 0.57 0.58 0.57 0.64 0.78 0.82 0.71 0.66 0.54 0.61 0.66 0.82 0.98 1.10 1.21 1.20 1.09
0.64 0.47 0.40 0.48 0.58 0.55 0.52 0.62 0.70 0.74 0.78 0.84 0.88 0.90 0.94 0.94 0.89 0.90 0.87 0.94 0.93 0.84 0.73 0.70 0.64 0.58 0.61 0.61 0.64 0.76 0.86 0.75 0.59 0.61 0.78 0.66 0.75 0.99 1.20 1.31 1.35 1.37 1.23
0.97 0.68 0.52 0.47 0.61 0.70 0.67 0.67 0.77 0.82 0.84 0.92 1.04 1.08 1.16 1.28 1.17 1.19 1.01 1.05 1.09 1.05 0.99 0.95 0.87 0.80 0.74 0.69 0.84 1.00 0.92 0.79 0.78 0.79 0.83 0.75 0.83 1.11 1.40 1.52 1.54 1.58 1.47
1.12 0.90 0.73 0.64 0.61 0.68 0.70 0.88 1.12 1.08 1.12 1.29 1.51 1.51 1.68 1.77 1.69 1.21 1.21 1.42 1.58 1.62 1.53 1.54 1.47 1.23 1.04 1.00 1.53 1.58 1.00 0.98 1.04 1.04 0.88 0.85 1.03 1.37 1.73 1.71 1.67 1.71 1.64
1.45 1.16 0.91 0.85 0.86 0.84 0.98 0.99 1.18 1.40 1.59 1.66 1.65 1.70 1.87 1.76 1.52 1.29 1.37 1.56 1.72 1.81 1.91 2.18 2.18 1.85 1.83 1.91 1.97 1.69 1.11 1.16 1.44 1.29 1.31 1.34 1.54 1.82 2.12 2.03 1.85 1.76 1.70
1.55 1.47 1.34 1.20 1.19 1.24 1.14 1.25 1.26 1.30 1.46 1.62 1.73 1.71 1.84 2.02 1.91 1.77 1.87 1.86 2.00 2.17 2.56 2.51 2.68 2.53 2.29 2.03 1.86 1.65 1.43 1.43 1.58 1.69 1.86 1.60 1.70 2.04 2.51 2.50 2.18 1.99 1.86
2.02 1.90 1.73 1.68 1.72 1.67 1.62 1.64 1.48 1.47 1.55 1.65 1.77 1.91 1.97 2.06 2.06 2.06 2.15 2.20 1.94 2.06 2.36 2.63 2.54 2.69 2.73 2.52 2.16 1.95 1.81 1.84 1.80 1.92 2.13 2.00 1.96 2.07 2.44 2.68 2.62 2.41 2.25
2.39 2.18 2.02 1.96 2.05 2.11 2.04 2.07 1.99 1.72 1.80 1.76 1.93 2.00 2.09 2.15 2.24 2.38 2.41 2.38 2.09 2.08 2.34 2.55 2.46 2.80 2.74 2.70 2.33 2.13 1.99 1.89 1.71 1.79 2.03 2.12 2.01 1.94 2.17 2.68 2.93 2.79 2.66
2.87 2.69 2.45 2.30 2.46 2.70 2.76 2.66 2.45 2.20 1.99 1.99 2.08 2.12 2.21 2.21 2.39 2.39 2.34 2.35 2.30 2.19 2.40 2.53 2.59 2.74 2.59 2.49 2.45 2.31 2.15 2.10 1.88 1.80 1.94 2.16 2.03 1.91 2.06 2.46 2.88 2.94 2.84
3.06 3.02 2.71 2.48 2.93 3.28 3.31 3.23 2.93 2.59 2.30 2.17 2.21 2.20 2.30 2.33 2.45 2.61 2.41 2.30 2.50 2.44 2.58 2.90 2.88 3.01 3.09 2.97 2.71 2.39 2.18 2.26 1.91 1.81 1.88 2.11 2.30 1.96 2.11 2.44 2.76 2.86 2.99
3.19 3.17 3.08 3.16 3.27 3.40 3.49 3.57 3.28 3.00 2.71 2.40 2.25 2.19 2.24 2.35 2.55 2.91 2.78 2.75 2.72 2.73 2.75 2.47 3.08 3.38 3.40 3.23 2.70 2.42 2.10 2.07 1.93 1.77 1.82 1.79 1.98 2.05 2.06 2.16 2.52 2.60 2.93
3.32 3.44 3.36 3.48 3.61 3.86 4.08 4.23 3.81 3.38 3.03 2.71 2.47 2.45 2.50 2.67 2.81 3.09 2.92 2.85 2.81 2.95 2.93 2.98 3.43 3.39 3.13 3.14 2.50 2.15 2.01 1.80 1.81 1.74 1.53 1.58 1.67 1.67 1.90 2.00 2.28 2.00 2.32
3.53 3.67 3.66 3.88 4.26 4.57 4.43 4.10 3.88 3.59 3.32 3.07 2.80 2.63 2.66 2.63 2.77 3.08 2.93 3.13 3.04 2.91 2.90 2.95 3.23 3.30 3.01 3.18 3.07 2.54 2.00 1.58 1.60 1.47 1.48 1.62 1.59 1.72 1.95 2.17 2.40 2.37 2.24
3.61 4.01 4.10 4.27 4.61 4.73 4.57 4.45 4.27 4.11 3.70 3.55 3.38 3.12 2.76 2.56 2.63 2.72 3.04 2.85 2.86 2.93 2.87 3.00 3.24 3.11 2.71 3.14 3.34 3.35 2.71 2.23 1.72 1.29 1.59 1.74 1.78 1.98 1.95 2.02 2.37 2.65 2.49
2.93 3.19 3.46 3.93 4.38 4.50 4.57 4.48 4.43 4.43 3.93 3.66 3.48 3.22 2.85 2.59 2.50 2.64 2.78 2.81 2.79 2.70 2.78 2.98 3.05 3.07 2.90 2.98 3.19 3.47 3.14 2.61 2.10 1.56 1.43 1.60 1.89 2.09 1.99 2.03 2.08 2.31 2.31
2.22 2.54 2.95 3.37 3.68 3.87 3.98 3.96 3.95 3.87 3.73 3.65 3.49 3.05 2.78 2.52 2.41 2.47 2.54 2.61 2.63 2.50 2.58 2.44 2.56 2.97 3.08 2.83 2.93 2.88 2.85 2.81 2.64 2.10 1.63 1.49 1.59 1.72 1.89 1.78 1.76 2.00 2.21
2.07 2.39 2.70 2.98 3.25 3.41 3.49 3.54 3.60 3.48 3.47 3.38 3.17 2.88 2.60 2.39 2.24 2.08 2.16 2.40 2.44 2.32 2.26 2.28 2.50 2.63 2.65 2.63 2.72 2.78 2.86 2.87 2.56 2.34 1.93 1.64 1.50 1.33 1.46 1.56 1.65 1.72 1.89
2.16 2.52 2.80 3.01 3.21 3.27 3.05 2.94 2.93 2.96 3.02 2.95 2.73 2.50 2.24 2.12 1.99 1.84 1.91 2.13 2.17 2.17 2.14 2.12 2.20 2.32 2.38 2.42 2.51 2.57 2.71 2.69 2.59 2.61 2.15 1.79 1.60 1.19 1.18 1.31 1.40 1.50 1.65